Change the Weather History Date:

Sunday, April 13, 2014

  Actual Average Record
Temperature  
Mean Temperature 44 °F 44 °F  
Max Temperature 57 °F 60 °F 77 °F (1971)
Min Temperature 31 °F 28 °F 15 °F (1997)
Degree Days  
Heating Degree Days 21 21  
Month to date heating degree days 282 288  
Since 1 July heating degree days 6029 6317  
Cooling Degree Days 0 0  
Month to date cooling degree days 0 0  
Year to date cooling degree days 0 0  
Moisture  
Dew Point 27 °F    
Average Humidity 54    
Maximum Humidity 86    
Minimum Humidity 21    
Precipitation  
Precipitation 0.04 in 0.05 in 0.55 in (1975)
Month to date precipitation 0.05 0.52  
Year to date precipitation 1.58 4.05  
Sea Level Pressure  
Sea Level Pressure 29.73 in    
Wind  
Wind Speed 10 mph (WNW)    
Max Wind Speed 39 mph    
Max Gust Speed 52 mph    
Visibility 10 miles    
Events Rain , Snow , Thunderstorm    
T = Trace of Precipitation, MM = Missing Value Source: NWS Daily Summary

Daily Weather History Graph

Daily Weather History Graph

Search for Another Location

Airport or City:

Trip Planner

Search our weather history database for the weather conditions in past years. The results will help you decide how hot, cold, wet, or windy it might be!

Date:

Astronomy

Apr. 13, 2014 Rise Set
Actual Time 6:39 AM MDT 7:44 PM MDT
Civil Twilight 6:12 AM MDT 8:11 PM MDT
Nautical Twilight 5:40 AM MDT 8:42 PM MDT
Astronomical Twilight 5:07 AM MDT 9:16 PM MDT
Moon 6:26 PM MDT (4/13) 5:37 AM MDT (4/13)
Length of Visible Light 13h 58m
Length of Day
13h 04m
Waxing Gibbous, 97% of the Moon is Illuminated
Apr 13
Waxing Gibbous
Apr 15
Full
Apr 22
Last Quarter
Apr 29
New
May 6
First Quarter

Hourly Weather History & Observations

Time (MDT) Temp. Windchill Dew Point Humidity Pressure Visibility Wind Dir Wind Speed Gust Speed Precip Events Conditions
12:53 AM 39.9 °F - 27.0 °F 60% 29.65 in 10.0 mi Calm Calm - N/A   Scattered Clouds
1:53 AM 41.0 °F 39.0 °F 28.0 °F 60% 29.67 in 10.0 mi NW 3.5 mph - N/A   Overcast
2:53 AM 42.1 °F 40.2 °F 28.0 °F 58% 29.69 in 10.0 mi NW 3.5 mph - N/A   Mostly Cloudy
3:53 AM 41.0 °F 38.0 °F 28.0 °F 60% 29.65 in 10.0 mi South 4.6 mph - N/A   Mostly Cloudy
4:53 AM 41.0 °F 39.0 °F 28.0 °F 60% 29.65 in 10.0 mi SSW 3.5 mph - N/A   Partly Cloudy
5:53 AM 35.1 °F 32.2 °F 26.1 °F 70% 29.70 in 10.0 mi North 3.5 mph - N/A   Clear
6:53 AM 33.1 °F 30.0 °F 26.1 °F 75% 29.71 in 10.0 mi East 3.5 mph - N/A   Partly Cloudy
7:53 AM 39.9 °F 36.7 °F 28.9 °F 65% 29.70 in 10.0 mi NNE 4.6 mph - N/A   Mostly Cloudy
8:53 AM 46.9 °F - 28.9 °F 50% 29.70 in 10.0 mi East 4.6 mph - N/A   Mostly Cloudy
9:53 AM 51.1 °F - 28.0 °F 41% 29.67 in 10.0 mi SE 5.8 mph - N/A   Scattered Clouds
10:53 AM 57.0 °F - 21.0 °F 25% 29.65 in 10.0 mi SW 19.6 mph 25.3 mph N/A   Mostly Cloudy
11:53 AM 54.0 °F - 23.0 °F 30% 29.67 in 10.0 mi WSW 16.1 mph 27.6 mph N/A   Mostly Cloudy
12:53 PM 48.9 °F - 26.1 °F 41% 29.70 in 10.0 mi West 19.6 mph 35.7 mph 0.00 in   Overcast
1:53 PM 46.9 °F - 37.0 °F 68% 29.70 in 10.0 mi WSW 17.3 mph 23.0 mph 0.01 in   Mostly Cloudy
2:23 PM 43.0 °F 35.4 °F 35.1 °F 74% 29.77 in 10.0 mi NW 16.1 mph 27.6 mph 0.00 in Rain Light Rain
2:43 PM 37.0 °F 24.1 °F 33.1 °F 86% 29.82 in 3.0 mi WNW 32.2 mph 51.8 mph 0.02 in Snow , Thunderstorm Light Snow
2:53 PM 36.0 °F 27.5 °F 34.0 °F 93% 29.77 in 5.0 mi WNW 12.7 mph - 0.03 in Snow , Thunderstorm Light Snow
3:02 PM 37.0 °F 28.9 °F 35.1 °F 93% 29.80 in 10.0 mi WNW 12.7 mph - 0.00 in Thunderstorm Overcast
3:10 PM 37.9 °F 32.7 °F 36.0 °F 93% 29.78 in 10.0 mi WNW 6.9 mph - 0.00 in   Overcast
3:53 PM 46.0 °F 43.1 °F 43.0 °F 89% 29.70 in 10.0 mi Variable 5.8 mph - 0.00 in   Partly Cloudy
4:53 PM 50.0 °F - 21.9 °F 33% 29.63 in 10.0 mi WNW 13.8 mph - N/A   Clear
5:26 PM 50.0 °F - 18.0 °F 28% 29.75 in 10.0 mi WNW 20.7 mph 28.8 mph N/A   Partly Cloudy
6:53 PM 46.0 °F 38.0 °F 15.1 °F 29% 29.74 in 10.0 mi West 21.9 mph 29.9 mph N/A   Partly Cloudy
7:53 PM 39.0 °F 31.4 °F 23.0 °F 53% 29.80 in 10.0 mi NNW 12.7 mph - N/A   Scattered Clouds
8:53 PM 39.0 °F 32.3 °F 19.9 °F 46% 29.79 in 10.0 mi NW 10.4 mph - N/A   Clear
9:53 PM 37.0 °F 33.3 °F 21.0 °F 52% 29.81 in 10.0 mi West 4.6 mph - N/A   Clear
10:53 PM 35.1 °F 27.9 °F 23.0 °F 61% 29.81 in 10.0 mi West 9.2 mph - N/A   Clear
11:53 PM 33.1 °F 24.4 °F 24.1 °F 70% 29.83 in 10.0 mi WSW 11.5 mph - N/A   Partly Cloudy